Home   Weather   Chennai   Past weeks
Flag for India

Past Weather in Chennai, Tamil Nadu, India — Yesterday and Last 2 Weeks

Now
75 °F

Thunderstorms. More clouds than sun.


Feels Like: 74 °F
Forecast: 92 / 81 °F
Wind: 8 mph from Northeast

Location: Madras / Minambakkam

Current Time: Apr 9, 2020 at 5:10:51 pm

Latest Report: Apr 9, 2020 at 4:30 pm


Visibility: 1 mi

Pressure: 29.86 "Hg

Humidity: 94%

Dew Point: 73 °F

Location of ChennaiLocation

Past Weather in Chennai — Graph

°F

Chennai Temperature Yesterday

Maximum temperature yesterday: 95 °F (at 11:30 am)
Minimum temperature yesterday: 84 °F (at 1:30 am)
Average temperature yesterday: 88 °F

High & Low Weather Summary for the Past Weeks

 TemperatureHumidityPressure
High99 °F (Apr 1, 2:30 pm)94% (Apr 4, 6:30 am)29.98 "Hg (Apr 4, 6:30 am)
Low75 °F (Mar 28, 5:30 am)35% (Apr 1, 2:30 pm)29.74 "Hg (Apr 2, 3:30 pm)
Average86 °F70%29.85 "Hg
* Reported Mar 25 3:30 pm — Apr 9 3:30 pm, Chennai. Weather by CustomWeather, © 2020

Note: Actual official high and low records may vary slightly from our data, if they occured in-between our weather recording intervals... More about our weather records

Chennai Weather History for the Previous 24 Hours

Scroll right to see more
 ConditionsComfort  
Time TempWeatherWind HumidityBarometerVisibility
3:30 pm
Thu, Apr 9
86 °FThunderstorms. Broken clouds.15 mph84%29.83 "Hg2 mi
2:30 pm91 °FScattered clouds.8 mph67%29.80 "Hg4 mi
1:30 pm93 °FScattered clouds.16 mph63%29.80 "Hg5 mi
12:30 pm93 °FScattered clouds.15 mph63%29.83 "Hg5 mi
11:30 am91 °FScattered clouds.10 mph67%29.86 "Hg5 mi
10:30 am91 °FScattered clouds.8 mph59%29.89 "Hg4 mi
9:30 am90 °FScattered clouds.9 mph63%29.89 "Hg4 mi
8:30 am88 °FScattered clouds.9 mph75%29.89 "Hg4 mi
7:30 am86 °FScattered clouds.8 mph84%29.86 "Hg4 mi
6:30 am84 °FScattered clouds.7 mph84%29.86 "Hg4 mi
5:30 am84 °FPassing clouds.7 mph84%29.83 "Hg4 mi
4:30 am84 °FPassing clouds.3 mph84%29.83 "Hg4 mi
3:30 am84 °FPassing clouds.3 mph84%29.80 "Hg4 mi
2:30 am84 °FPassing clouds.5 mph84%29.83 "Hg4 mi
1:30 am84 °FPassing clouds.5 mph84%29.83 "Hg4 mi
12:30 am84 °FPassing clouds.5 mph84%29.86 "Hg4 mi
11:30 pm
Wed, Apr 8
86 °FPassing clouds.6 mph79%29.86 "Hg4 mi
10:30 pm86 °FPassing clouds.6 mph79%29.86 "Hg4 mi
9:30 pm86 °FPassing clouds.6 mph79%29.86 "Hg4 mi
8:30 pm86 °FPassing clouds.8 mph79%29.86 "Hg4 mi
7:30 pm86 °FPassing clouds.8 mph79%29.80 "Hg4 mi
6:30 pm88 °FScattered clouds.10 mph75%29.80 "Hg4 mi
5:30 pm88 °FScattered clouds.12 mph75%29.77 "Hg4 mi
Weather by CustomWeather, © 2020

See weather overview

Advertising